{"data":{"norad_id":66467,"epoch":"2026-05-24T22:41:21.707232Z","epoch_age_seconds":73155,"freshness":"FRESH","line1":"1 66467U 25262M   26144.94539013  .00012741  00000+0  47189-3 0  9993","line2":"2 66467  43.0008 225.9633 0001797 263.4245  96.6402 15.27567551 30561","mean_motion":15.27567551,"eccentricity":0.0001797,"inclination_deg":43.0008,"raan_deg":225.9633,"arg_perigee_deg":263.4245,"mean_anomaly_deg":96.6402,"bstar":0.00047189,"rev_number":3056,"period_min":94.267516945966,"perigee_km":481.85341123717,"apogee_km":484.31933491746,"semimajor_km":6861.2233730773,"source":"CELESTRAK","updated_at":"2026-05-25T13:38:21.216158Z"}}